Montpelier, VT

1:27 AM EDT on October 21, 2017 (GMT -0400)
Knapp State

Weather History for KMPV - October, 2011

Change the Weather History Date:

Wednesday, October 5, 2011

  Actual Average Record
Temperature  
Mean Temperature 45 °F 50 °F  
Max Temperature 55 °F 60 °F 82 °F (1951)
Min Temperature 35 °F 39 °F 23 °F (1996)
Degree Days  
Heating Degree Days 20 16  
Month to date heating degree days 70 74  
Since 1 July heating degree days 234 429  
Cooling Degree Days 0 0  
Month to date cooling degree days 0 0  
Year to date cooling degree days 308 263  
Moisture  
Dew Point 41 °F    
Average Humidity 66    
Maximum Humidity 93    
Minimum Humidity 39    
Precipitation  
Precipitation 0.01 in 0.11 in 1.01 in (1962)
Month to date precipitation 1.17 0.58  
Year to date precipitation 47.05 28.50  
Sea Level Pressure  
Sea Level Pressure 30.11 in    
Wind  
Wind Speed 8 mph (NW)    
Max Wind Speed 23 mph    
Max Gust Speed 35 mph    
Visibility 10 miles    
Events      
T = Trace of Precipitation, MM = Missing Value Source: NWS Daily Summary

Daily Weather History Graph

Daily Weather History Graph

Search for Another Location

Airport or City:

Trip Planner

Search our weather history database for the weather conditions in past years. The results will help you decide how hot, cold, wet, or windy it might be!

Date:

Astronomy

Oct. 05, 2011 Rise Set
Actual Time 6:52 AM EDT 6:24 PM EDT
Civil Twilight 6:23 AM EDT 6:53 PM EDT
Nautical Twilight 5:49 AM EDT 7:26 PM EDT
Astronomical Twilight 5:16 AM EDT 8:00 PM EDT
Moon 3:14 PM EDT (10/5) 12:22 AM EDT (10/5)
Length of Visible Light 12h 29m
Length of Day
11h 31m
Waxing Gibbous, 66% of the Moon is Illuminated
Oct 5
Waxing Gibbous
Oct 11
Full
Oct 19
Last Quarter
Oct 26
New
Nov 2
First Quarter

Hourly Weather History & Observations

Time (EDT) Temp. Windchill Dew Point Humidity Pressure Visibility Wind Dir Wind Speed Gust Speed Precip Events Conditions
12:51 AM 52.0 °F - 48.9 °F 89% 30.04 in 10.0 mi NNW 5.8 mph - N/A   Overcast
1:02 AM 51.8 °F - 48.2 °F 88% 30.03 in 10.0 mi NNW 6.9 mph - N/A   Overcast
1:51 AM 51.8 °F - 48.2 °F 88% 30.03 in 10.0 mi WNW 9.2 mph - N/A   Overcast
2:17 AM 51.8 °F - 48.2 °F 88% 30.02 in 10.0 mi NW 10.4 mph - N/A   Overcast
2:35 AM 51.8 °F - 48.2 °F 88% 30.02 in 10.0 mi WNW 8.1 mph - N/A   Overcast
2:51 AM 51.1 °F - 48.0 °F 89% 30.04 in 10.0 mi NW 12.7 mph - N/A   Overcast
3:51 AM 50.0 °F - 46.9 °F 89% 30.04 in 10.0 mi NNW 4.6 mph 16.1 mph N/A   Mostly Cloudy
4:30 AM 50.0 °F - 44.6 °F 82% 30.02 in 10.0 mi NW 11.5 mph 19.6 mph N/A   Scattered Clouds
4:51 AM 48.9 °F - 45.0 °F 86% 30.04 in 10.0 mi NW 10.4 mph 19.6 mph N/A   Partly Cloudy
5:51 AM 48.9 °F - 45.0 °F 86% 30.05 in 10.0 mi NW 11.5 mph - N/A   Overcast
6:51 AM 48.9 °F - 45.0 °F 86% 30.05 in 10.0 mi Calm Calm - N/A   Overcast
7:51 AM 48.9 °F - 45.0 °F 86% 30.05 in 10.0 mi NW 9.2 mph - N/A   Overcast
8:51 AM 50.0 °F - 46.0 °F 86% 30.05 in 10.0 mi NW 9.2 mph - N/A   Overcast
9:23 AM 50.0 °F - 46.4 °F 87% 30.05 in 10.0 mi NW 10.4 mph - 0.00 in   Overcast
9:51 AM 48.9 °F - 46.9 °F 93% 30.08 in 10.0 mi NW 9.2 mph - 0.01 in   Overcast
10:21 AM 53.6 °F - 48.2 °F 82% 30.06 in 10.0 mi WNW 11.5 mph - N/A   Mostly Cloudy
10:51 AM 52.0 °F - 48.0 °F 86% 30.09 in 10.0 mi NW 9.2 mph - N/A   Overcast
11:07 AM 51.8 °F - 46.4 °F 82% 30.08 in 10.0 mi NW 8.1 mph 16.1 mph N/A   Overcast
11:28 AM 51.8 °F - 46.4 °F 82% 30.08 in 10.0 mi NW 12.7 mph 18.4 mph N/A   Overcast
11:51 AM 52.0 °F - 45.0 °F 77% 30.10 in 10.0 mi NW 8.1 mph - N/A   Overcast
12:51 PM 53.1 °F - 42.1 °F 66% 30.11 in 10.0 mi North 8.1 mph 23.0 mph N/A   Mostly Cloudy
1:51 PM 52.0 °F - 37.0 °F 57% 30.13 in 10.0 mi NNW 18.4 mph 29.9 mph N/A   Overcast
2:51 PM 54.0 °F - 35.1 °F 49% 30.15 in 10.0 mi NNW 17.3 mph 32.2 mph N/A   Partly Cloudy
3:51 PM 53.1 °F - 33.1 °F 47% 30.17 in 10.0 mi NNW 16.1 mph 25.3 mph N/A   Partly Cloudy
4:51 PM 52.0 °F - 30.0 °F 43% 30.20 in 10.0 mi North 15.0 mph 27.6 mph N/A   Clear
5:51 PM 50.0 °F - 27.0 °F 41% 30.23 in 10.0 mi NNW 10.4 mph 26.5 mph N/A   Clear
6:51 PM 46.0 °F 43.9 °F 28.9 °F 51% 30.25 in 10.0 mi NNW 4.6 mph - N/A   Clear
7:51 PM 44.1 °F - 28.9 °F 55% 30.26 in 10.0 mi Calm Calm - N/A   Clear
8:51 PM 42.1 °F - 30.9 °F 65% 30.26 in 10.0 mi Calm Calm - N/A   Clear
9:51 PM 39.9 °F - 30.9 °F 70% 30.27 in 10.0 mi Calm Calm - N/A   Clear
10:51 PM 37.4 °F 34.9 °F 30.2 °F 75% 30.25 in 10.0 mi WSW 3.5 mph - N/A   Clear
11:51 PM 37.9 °F 35.5 °F 28.9 °F 70% 30.29 in 10.0 mi Variable 3.5 mph - N/A   Clear